TimeEDT,TemperatureF,Dew PointF,Humidity,Sea Level PressureIn,VisibilityMPH,Wind Direction,Wind SpeedMPH,Gust SpeedMPH,PrecipitationIn,Events,Conditions,WindDirDegrees,DateUTC
12:53 AM,64.9,55.0,70,29.88,10.0,North,4.6,-,N/A,,Clear,350,2012-10-16 04:53:00
1:53 AM,63.0,52.0,67,29.89,10.0,North,3.5,-,N/A,,Clear,360,2012-10-16 05:53:00
2:53 AM,60.1,51.1,72,29.91,10.0,Calm,Calm,-,N/A,,Clear,0,2012-10-16 06:53:00
4:53 AM,54.0,48.9,83,29.91,10.0,Calm,Calm,-,N/A,,Clear,0,2012-10-16 08:53:00
6:53 AM,55.0,48.0,77,29.93,10.0,NNW,4.6,-,N/A,,Clear,340,2012-10-16 10:53:00
8:53 AM,57.9,48.0,70,29.96,10.0,North,4.6,-,N/A,,Clear,360,2012-10-16 12:53:00
9:53 AM,64.0,48.0,56,29.96,10.0,Variable,6.9,-,N/A,,Clear,0,2012-10-16 13:53:00
10:53 AM,66.9,45.0,45,29.96,10.0,Variable,6.9,16.1,N/A,,Clear,0,2012-10-16 14:53:00
11:53 AM,71.1,46.9,42,29.96,10.0,East,5.8,-,N/A,,Clear,100,2012-10-16 15:53:00
12:53 PM,73.0,48.0,41,29.94,10.0,Variable,4.6,-,N/A,,Clear,0,2012-10-16 16:53:00
1:53 PM,73.9,48.0,40,29.91,10.0,East,5.8,-,N/A,,Clear,90,2012-10-16 17:53:00
2:53 PM,75.9,46.0,35,29.89,10.0,NNE,5.8,-,N/A,,Clear,20,2012-10-16 18:53:00
3:53 PM,75.9,45.0,33,29.88,10.0,Calm,Calm,-,N/A,,Clear,0,2012-10-16 19:53:00
4:53 PM,75.0,46.0,36,29.88,10.0,NNE,3.5,-,N/A,,Clear,20,2012-10-16 20:53:00
5:53 PM,72.0,51.1,48,29.88,10.0,Calm,Calm,-,N/A,,Clear,0,2012-10-16 21:53:00
6:53 PM,66.9,50.0,54,29.88,10.0,North,3.5,-,N/A,,Clear,10,2012-10-16 22:53:00
7:53 PM,62.1,52.0,70,29.89,10.0,Calm,Calm,-,N/A,,Clear,0,2012-10-16 23:53:00
8:53 PM,59.0,53.1,81,29.90,10.0,Calm,Calm,-,N/A,,Clear,0,2012-10-17 00:53:00
9:53 PM,57.9,53.1,84,29.90,10.0,Calm,Calm,-,N/A,,Clear,0,2012-10-17 01:53:00
10:53 PM,55.9,53.1,90,29.91,10.0,Calm,Calm,-,N/A,,Clear,0,2012-10-17 02:53:00
11:53 PM,55.9,52.0,87,29.91,10.0,Calm,Calm,-,N/A,,Clear,0,2012-10-17 03:53:00